Terminal Aerodrome Forecast
Issued by NWS State College, PA

Home | Current Version | Previous Version | Text Only | Print | Product List | Glossary On
Versions: 1 2 3 4 5 6 7 8 9 10 11 12 13 14 15 16 17 18 19 20 21 22 23 24 25 26 27 28 29 30 31 32 33 34 35 36 37 38 39 40 41 42 43 44 45 46 47 48 49 50
000
FTUS41 KCTP 010326 AAA
TAFMDT
TAF AMD
KMDT 010326Z 0103/0124 12008G16KT P6SM BKN035
     FM010800 14007KT 5SM BR BKN030
     FM011600 18010G20KT P6SM BKN035
     FM012300 19012G22KT 5SM -SHRA BR OVC030
      TEMPO 0123/0124 25015G30KT 1SM +TSRA BR OVC025CB=

USA.gov is the U.S. government's official web portal to all federal, state and local government web resources and services.